Flag for Austria Weather past 2 weeks in Krems, Lower Austria, Austria

Now
57 °F

Passing clouds.


Feels Like: 57 °F
Forecast: 43 / 74 °F
Wind: 2 mph from North

Location: Tulln Airport

Current Time: Aug 22, 2014 at 12:02:31 AM

Latest Report: Aug 21, 2014 at 10:50 PM


Visibility: 15 mi

Pressure: 30.07 "Hg

Humidity: 82%

Dew point: 52 °F

Location of KremsLocation

Historic Weather in Krems — Graph

°F

Krems temperature yesterday

Maximum temperature yesterday: 68 °F (at 1:50 PM)
Minimum temperature yesterday: 54 °F (at 5:50 AM)
Average temperature yesterday: 62 °F

Past Weeks' High & Low Weather Summary

 TemperatureHumidityPressure
High90 °F (Aug 9, 2:50 PM)100% (Aug 7, 5:50 AM)30.09 "Hg (Aug 7, 5:50 AM)
Low50 °F (Aug 18, 5:50 AM)34% (Aug 18, 4:50 PM)29.68 "Hg (Aug 13, 7:50 PM)
Average68 °F71%29.96 "Hg
* Reported Aug 6 10:50 PM — Aug 21 10:50 PM, Krems, Weather by CustomWeather, © 2014

Note: Actual official high and low records may vary slightly from our data, if they occured in-between our weather recording intervals... More about our weather records

Advertising

Krems weather history for previous 24 hours

 ConditionsComfort  
Time TempWeatherWind HumidityBarometerVisibility
10:50 PM
Aug 21
57 °FPassing clouds.2 mph82%30.07 "Hg16 mi
9:50 PM57 °FPassing clouds.2 mph82%30.04 "Hg19 mi
8:50 PM59 °FScattered clouds.3 mph88%30.04 "Hg19 mi
7:50 PM63 °FPartly sunny.2 mph77%30.04 "Hg19 mi
6:50 PM63 °FScattered clouds.3 mph77%30.04 "Hg19 mi
5:50 PM64 °FScattered clouds.6 mph73%30.04 "Hg25 mi
4:50 PM68 °FScattered clouds.12 mph56%30.01 "Hg25 mi
3:50 PM68 °FPartly sunny.10 mph60%30.04 "Hg25 mi
2:50 PM68 °FPartly sunny.13 mph56%30.04 "Hg25 mi
1:50 PM68 °FBroken clouds.14 mph60%30.04 "Hg25 mi
12:50 PM66 °FBroken clouds.10 mph64%30.04 "Hg25 mi
11:50 AM66 °FScattered clouds.8 mph68%30.04 "Hg19 mi
10:50 AM63 °FPartly sunny.9 mph77%30.04 "Hg12 mi
9:50 AM59 °FPassing clouds.8 mph88%30.04 "Hg10 mi
8:50 AM57 °FBroken clouds.7 mph94%30.04 "Hg6 mi
7:50 AM55 °FBroken clouds.3 mph100%30.04 "Hg7 mi
6:50 AM54 °FLight rain. Low clouds.3 mph100%30.04 "Hg4 mi
5:50 AM54 °FRain. Low clouds.8 mph100%30.04 "Hg4 mi
Weather by CustomWeather, © 2014

See weather overviewHow to use our weather pages